星链-32589 (STARLINK-32589)

导读

STARLINK-32589是美国SpaceX星链星座的一颗卫星,于2024年11月30日08:00发射升空。星链项目旨在构建全球卫星互联网星座,为全球偏远地区、海洋空域等提供高速低延迟互联网接入服务,这颗卫星加入后进一步扩充了星链星座的部署规模,助力星座全球覆盖能力的提升。

Basic Information
目录编号:
62183
目录名称:
STARLINK-32589
国际标识:
2024-225W
轨道中心:
EARTH
卫星名称:
星链-32589
卫星全名:
星链-32589 (STARLINK-32589)
卫星状态:
在轨 (已飞行651 天)
发射日期:
2024-11-30 UTC
国别 :
美国 (US)
星等 :
--
This satellite is enrolled in the Space Conjunction Data Service (SCDS) and the current flight risk assessment level is: No High Risk
Orbit Information
数据来源 国际轨道数据 AOE轨道数据
星历时间 2026-09-12T02:35:25+0800
12小时前
查看轨道信息
2026-09-07T02:00:00+0800
5天前
查看轨道信息
半长轴 6950.163km 6950.208km
偏心率 0.0002898 0.0004316
轨道倾角 70.001° 69.999°
近地点辐角 261.857° 279.234°
升交点赤经 55.473° 68.140°
平近点角 98.226° 346.012°
近地点 570.011km 569.071km
远地点 574.041km 575.071km
周期 96.106分钟 96.107分钟
每日圈数 14.983399 14.983252
Detailed Information
固有亮度:
5
最大亮度:
2.5
卫星平台:
Starlink V1.0
覆盖范围:
全球
运营商:
太空探索技术公司
运营商所在国:
美国
制造商(研发单位):
太空探索技术公司
制造商所在国:
美国
使用方式:
暂无
Satellite Introduction
Starlink 计划是 SpaceX 推出的全球卫星互联网项目,通过发射低轨道卫星,为全球尤其是偏远地区提供高速、低延迟的互联网服务。自 2019 年起,Starlink 已部署数千颗卫星,旨在缩小全球数字鸿沟,推动互联网普及。该项目还为军事、航空等行业提供通信支持,带来广泛经济效益。
2D Orbit Map
3D Orbit Map
Orbit Altitude Analysis Chart
Orbit Inclination Analysis Chart
Orbit Comprehensive Analysis Chart
View Comprehensive Chart
Miss Distance Evolution Trend with All Objects
Collision Probability Evolution Trend with All Objects